Location: NJAA Observatory
(40.6819°N, 74.8979°W)
Time: 20:51:39
(UTC-05:00)

Cosmos 2263 Rocket - Visible Passes

Search period start: 03 December 2016 00:00
Search period end: 13 December 2016 00:00
Orbit: 823 x 850 km, 71.0° (Epoch: 03 December)

Date Brightness Start Highest point End Pass type
(mag) Time Alt. Az. Time Alt. Az. Time Alt. Az.
03 Dec 4.3 17:34:58 10° WSW 17:39:18 22° NW 17:43:40 10° N visible
04 Dec 4.2 17:18:04 10° WSW 17:22:33 24° NW 17:27:04 10° N visible
05 Dec 4.1 17:01:10 10° WSW 17:05:46 26° NW 17:10:28 10° N visible
